When you browse on this site, cookies collect data to enhance your experience and personalize the content and advertising you see.
Visit our Privacy Policy to learn more. By continuing to use the site, you agree to this use of cookies and data.
  • In United Kingdom
  • List of Countries
  • For 7 days
  • Water Temperature
  • Weather Map
  • Weather Widgets
  • user-avatar
    Login

    Hourly Weather La Paz

    Today, 21 August, Wednesday

    Time Temperature Precipitation Wind Pressure Humidity
    00:00 +21°C° 0 mm 0 mps 699 mmHg 94%
    01:00 +21°C° 0 mm 0 mps 698 mmHg 95%
    02:00 +21°C° 0 mm 0 mps 698 mmHg 95%
    03:00 +20°C° 0 mm 0 mps 698 mmHg 96%
    04:00 +22°C° 0 mm 1 mps 698 mmHg 96%
    05:00 +22°C° 0 mm 1 mps 698 mmHg 96%
    06:00 +22°C° 0 mm 1 mps 698 mmHg 97%
    07:00 +24°C° 0 mm 1 mps 699 mmHg 88%
    08:00 +27°C° 0 mm 1 mps 700 mmHg 79%
    09:00 +29°C° 0 mm 1 mps 700 mmHg 70%
    10:00 +30°C° 0 mm 1 mps 700 mmHg 64%
    11:00 +32°C° 0 mm 2 mps 700 mmHg 57%
    12:00 +34°C° 0 mm 2 mps 700 mmHg 51%
    13:00 +32°C° 0.6 mm 2 mps 699 mmHg 55%
    14:00 +32°C° 0.6 mm 2 mps 698 mmHg 59%
    15:00 +31°C° 0.6 mm 1 mps 698 mmHg 63%
    16:00 +30°C° 1 mm 1 mps 698 mmHg 71%
    17:00 +28°C° 1 mm 1 mps 698 mmHg 78%
    18:00 +24°C° 1 mm 0 mps 698 mmHg 85%
    19:00 +23°C° 0.1 mm 0 mps 698 mmHg 87%
    20:00 +22°C° 0.1 mm 0 mps 698 mmHg 89%
    21:00 +22°C° 0.1 mm 0 mps 699 mmHg 91%
    22:00 +21°C° 0 mm 0 mps 699 mmHg 92%
    23:00 +23°C° 0 mm 1 mps 699 mmHg 93%

    Tomorrow, 22 August, Thursday

    Time Temperature Precipitation Wind Pressure Humidity
    00:00 +23°C° 0 mm 1 mps 699 mmHg 94%
    01:00 +23°C° 0 mm 1 mps 699 mmHg 95%
    02:00 +22°C° 0 mm 1 mps 698 mmHg 95%
    03:00 +22°C° 0 mm 1 mps 698 mmHg 96%
    04:00 +22°C° 0 mm 1 mps 698 mmHg 96%
    05:00 +22°C° 0 mm 1 mps 698 mmHg 96%
    06:00 +22°C° 0 mm 1 mps 698 mmHg 96%
    07:00 +24°C° 0 mm 1 mps 699 mmHg 87%
    08:00 +26°C° 0 mm 1 mps 700 mmHg 78%
    09:00 +29°C° 0 mm 1 mps 701 mmHg 69%
    10:00 +30°C° 0 mm 2 mps 700 mmHg 61%
    11:00 +32°C° 0 mm 2 mps 700 mmHg 53%
    12:00 +34°C° 0 mm 2 mps 700 mmHg 46%
    13:00 +34°C° 0 mm 2 mps 699 mmHg 45%
    14:00 +34°C° 0 mm 2 mps 699 mmHg 44%
    15:00 +35°C° 0 mm 2 mps 698 mmHg 44%
    16:00 +31°C° 0 mm 2 mps 698 mmHg 52%
    17:00 +29°C° 0 mm 2 mps 698 mmHg 60%
    18:00 +27°C° 0 mm 1 mps 697 mmHg 68%
    19:00 +26°C° 0 mm 1 mps 698 mmHg 71%
    20:00 +25°C° 0 mm 1 mps 698 mmHg 75%
    21:00 +24°C° 0 mm 1 mps 699 mmHg 78%
    22:00 +23°C° 0 mm 1 mps 699 mmHg 81%
    23:00 +23°C° 0 mm 1 mps 699 mmHg 84%

    Day after tomorrow, 23 August, Friday

    Time Temperature Precipitation Wind Pressure Humidity
    00:00 +22°C° 0 mm 1 mps 699 mmHg 87%
    01:00 +22°C° 0 mm 1 mps 698 mmHg 89%
    02:00 +22°C° 0 mm 1 mps 698 mmHg 91%
    03:00 +21°C° 0 mm 1 mps 698 mmHg 92%
    04:00 +21°C° 0 mm 1 mps 698 mmHg 92%
    05:00 +21°C° 0 mm 1 mps 698 mmHg 93%
    06:00 +21°C° 0 mm 1 mps 698 mmHg 93%
    07:00 +24°C° 0 mm 1 mps 699 mmHg 79%
    08:00 +27°C° 0 mm 1 mps 700 mmHg 65%
    09:00 +30°C° 0 mm 1 mps 701 mmHg 50%
    10:00 +31°C° 0 mm 1 mps 700 mmHg 45%
    11:00 +33°C° 0 mm 1 mps 700 mmHg 40%
    12:00 +35°C° 0 mm 2 mps 700 mmHg 34%
    13:00 +35°C° 0 mm 2 mps 700 mmHg 35%
    14:00 +35°C° 0 mm 2 mps 699 mmHg 35%
    15:00 +35°C° 0 mm 2 mps 698 mmHg 36%
    16:00 +32°C° 0 mm 2 mps 698 mmHg 46%
    17:00 +29°C° 0 mm 1 mps 698 mmHg 56%
    18:00 +27°C° 0 mm 1 mps 697 mmHg 66%
    19:00 +26°C° 0 mm 1 mps 698 mmHg 70%
    20:00 +25°C° 0 mm 1 mps 698 mmHg 74%
    21:00 +24°C° 0 mm 1 mps 699 mmHg 78%
    22:00 +23°C° 0 mm 1 mps 699 mmHg 80%
    23:00 +23°C° 0 mm 1 mps 699 mmHg 83%

    24 August, Saturday

    Time Temperature Precipitation Wind Pressure Humidity
    00:00 +23°C° 0 mm 1 mps 699 mmHg 85%
    01:00 +23°C° 0 mm 1 mps 698 mmHg 87%
    02:00 +22°C° 0 mm 1 mps 698 mmHg 90%
    03:00 +22°C° 0 mm 1 mps 698 mmHg 93%
    04:00 +22°C° 0 mm 1 mps 698 mmHg 93%
    05:00 +22°C° 0 mm 1 mps 698 mmHg 93%
    06:00 +20°C° 0 mm 0 mps 698 mmHg 94%
    07:00 +25°C° 0 mm 1 mps 699 mmHg 83%
    08:00 +28°C° 0 mm 1 mps 700 mmHg 72%
    09:00 +31°C° 0 mm 1 mps 701 mmHg 61%
    10:00 +32°C° 0 mm 1 mps 700 mmHg 56%
    11:00 +33°C° 0 mm 1 mps 700 mmHg 51%
    12:00 +35°C° 0 mm 2 mps 700 mmHg 46%
    13:00 +34°C° 0.9 mm 2 mps 699 mmHg 52%
    14:00 +32°C° 0.9 mm 2 mps 698 mmHg 57%
    15:00 +31°C° 0.9 mm 2 mps 698 mmHg 63%
    16:00 +29°C° 1.4 mm 2 mps 697 mmHg 71%
    17:00 +28°C° 1.4 mm 1 mps 697 mmHg 79%
    18:00 +26°C° 1.4 mm 1 mps 697 mmHg 87%
    19:00 +25°C° 0.1 mm 1 mps 698 mmHg 88%
    20:00 +25°C° 0.1 mm 1 mps 698 mmHg 90%
    21:00 +24°C° 0.1 mm 1 mps 699 mmHg 91%
    22:00 +24°C° 0 mm 1 mps 699 mmHg 92%
    23:00 +23°C° 0 mm 1 mps 698 mmHg 93%

    25 August, Sunday

    Time Temperature Precipitation Wind Pressure Humidity
    00:00 +23°C° 0 mm 1 mps 698 mmHg 94%
    01:00 +23°C° 0 mm 1 mps 698 mmHg 95%
    02:00 +22°C° 0 mm 1 mps 697 mmHg 95%
    03:00 +20°C° 0 mm 0 mps 697 mmHg 95%
    04:00 +20°C° 0 mm 0 mps 697 mmHg 95%
    05:00 +20°C° 0 mm 0 mps 697 mmHg 95%
    06:00 +20°C° 0 mm 0 mps 697 mmHg 96%
    07:00 +22°C° 0 mm 0 mps 698 mmHg 86%
    08:00 +27°C° 0 mm 1 mps 699 mmHg 77%
    09:00 +30°C° 0 mm 1 mps 700 mmHg 68%
    10:00 +31°C° 0 mm 1 mps 699 mmHg 60%
    11:00 +33°C° 0 mm 1 mps 699 mmHg 52%
    12:00 +35°C° 0 mm 2 mps 699 mmHg 44%
    13:00 +35°C° 0.1 mm 2 mps 698 mmHg 43%
    14:00 +35°C° 0.1 mm 2 mps 698 mmHg 43%
    15:00 +35°C° 0.1 mm 2 mps 697 mmHg 43%
    16:00 +31°C° 0.1 mm 2 mps 697 mmHg 54%
    17:00 +29°C° 0.1 mm 1 mps 697 mmHg 66%
    18:00 +26°C° 0.1 mm 1 mps 697 mmHg 78%
    19:00 +25°C° 0 mm 1 mps 697 mmHg 82%
    20:00 +24°C° 0 mm 1 mps 697 mmHg 87%
    21:00 +23°C° 0 mm 1 mps 698 mmHg 91%
    22:00 +23°C° 0 mm 1 mps 698 mmHg 91%
    23:00 +23°C° 0 mm 1 mps 698 mmHg 92%

    26 August, Monday

    Time Temperature Precipitation Wind Pressure Humidity
    00:00 +23°C° 0 mm 1 mps 697 mmHg 92%
    01:00 +23°C° 0 mm 1 mps 697 mmHg 92%
    02:00 +21°C° 0 mm 0 mps 697 mmHg 93%
    03:00 +20°C° 0 mm 0 mps 697 mmHg 93%
    04:00 +20°C° 0 mm 0 mps 697 mmHg 93%
    05:00 +20°C° 0 mm 0 mps 697 mmHg 93%
    06:00 +20°C° 0 mm 0 mps 697 mmHg 93%
    07:00 +25°C° 0 mm 1 mps 698 mmHg 84%
    08:00 +27°C° 0 mm 1 mps 698 mmHg 75%
    09:00 +30°C° 0 mm 1 mps 699 mmHg 65%
    10:00 +30°C° 0.4 mm 1 mps 699 mmHg 63%
    11:00 +31°C° 0.4 mm 1 mps 698 mmHg 61%
    12:00 +32°C° 0.4 mm 1 mps 698 mmHg 59%
    13:00 +32°C° 1.5 mm 1 mps 698 mmHg 61%
    14:00 +31°C° 1.5 mm 1 mps 697 mmHg 63%
    15:00 +31°C° 1.5 mm 1 mps 697 mmHg 65%
    16:00 +29°C° 1.3 mm 1 mps 697 mmHg 72%
    17:00 +28°C° 1.3 mm 1 mps 697 mmHg 79%
    18:00 +26°C° 1.3 mm 1 mps 697 mmHg 86%
    19:00 +25°C° 1.3 mm 1 mps 697 mmHg 88%
    20:00 +25°C° 1.3 mm 1 mps 698 mmHg 89%
    21:00 +24°C° 1.3 mm 1 mps 698 mmHg 90%
    22:00 +24°C° 0.1 mm 1 mps 698 mmHg 90%
    23:00 +24°C° 0.1 mm 1 mps 698 mmHg 91%
    Show more